EW8281 Weather Reports


time (UTC)temp
C
wind
direction
speed
KPH
gust
KPH
rain 1hr
cm
rain 24hr
cm
rain mn
cm
humidity
%
barometer
mb
20260503054505 4 343 0.0 0.0 0.00 0.00 0.00 84 1015.3
20260503053009 3 343 0.0 0.0 0.00 0.00 0.00 85 1015.2
20260503051503 4 343 0.0 0.0 0.00 0.00 0.00 83 1015.2
20260503050101 4 343 0.0 0.0 0.00 0.00 0.00 81 1015.1
20260503044602 5 343 0.0 0.0 0.00 0.00 0.00 82 1015.0
20260503043056 5 343 0.0 0.0 0.00 0.00 0.00 80 1014.9
20260503041557 5 343 0.0 0.0 0.00 0.00 0.00 81 1014.7
20260503040051 6 343 0.0 0.0 0.00 0.00 0.00 81 1014.7
20260503034606 6 343 0.0 0.0 0.00 0.00 0.00 78 1014.5
20260503033056 6 343 0.0 0.0 0.00 0.00 0.00 76 1014.5
20260503031545 6 343 0.0 0.0 0.00 0.00 0.00 76 1014.3
20260503030041 7 343 0.0 0.0 0.00 0.00 0.00 76 1014.1
20260503024538 7 343 0.0 0.0 0.00 0.00 0.00 74 1014.2
20260503023035 7 343 0.0 0.0 0.00 0.00 0.00 73 1014.1
20260503021532 8 343 0.0 0.0 0.00 0.00 0.00 71 1013.8
20260503020030 8 343 0.0 0.0 0.00 0.00 0.00 72 1013.8
20260503014528 9 343 0.0 0.0 0.00 0.00 0.00 73 1013.6
20260503013033 9 346 0.0 1.6 0.00 0.00 0.00 71 1013.4
20260503011522 10 346 0.0 0.0 0.00 0.00 0.00 70 1013.0
20260503010022 11 344 0.0 6.4 0.00 0.00 0.00 66 1012.7
20260503004521 11 272 0.0 1.6 0.00 0.00 0.00 66 1012.5
20260503003022 12 272 0.0 3.2 0.00 0.00 0.00 63 1012.3
20260503001520 12 49 1.6 6.4 0.00 0.00 0.00 58 1012.0
20260503000020 12 340 0.0 0.0 0.00 0.00 0.00 61 1011.9
20260502234519 13 340 0.0 6.4 0.00 0.00 0.00 58 1011.8
20260502233020 13 344 1.6 6.4 0.00 0.00 0.00 60 1011.5
20260502231519 13 128 0.0 0.0 0.00 0.00 0.00 64 1011.3
20260502230023 13 128 0.0 0.0 0.00 0.00 0.00 59 1011.1
20260502224517 13 128 0.0 0.0 0.00 0.00 0.00 58 1011.1
20260502223017 14 128 0.0 0.0 0.00 0.00 0.00 57 1010.9
20260502221516 15 165 3.2 8.0 0.00 0.00 0.00 48 1010.5
20260502220015 14 150 1.6 6.4 0.00 0.00 0.00 47 1010.4
20260502214519 15 41 0.0 9.7 0.00 0.00 0.00 50 1010.2
20260502213014 15 148 1.6 11.3 0.00 0.00 0.00 50 1010.1
20260502211524 15 81 0.0 9.7 0.00 0.00 0.00 48 1010.1
20260502210025 15 13 1.6 14.5 0.00 0.00 0.00 48 1010.0
20260502204511 15 149 3.2 9.7 0.00 0.00 0.00 47 1010.1
20260502203008 15 106 0.0 9.7 0.00 0.00 0.00 49 1010.2
20260502201511 14 88 1.6 11.3 0.00 0.00 0.00 50 1010.4
20260502200002 14 167 0.0 12.9 0.00 0.00 0.00 50 1010.7
20260502194501 14 360 1.6 12.9 0.00 0.00 0.00 50 1011.1
20260502193122 14 38 1.6 4.8 0.00 0.00 0.00 53 1011.3
20260502191559 14 360 1.6 11.3 0.00 0.00 0.00 49 1011.3
20260502190056 13 349 0.0 6.4 0.00 0.00 0.00 50 1011.4
20260502184553 12 323 1.6 12.9 0.00 0.00 0.00 53 1011.7
20260502183056 12 30 1.6 9.7 0.00 0.00 0.00 53 1011.9
20260502181550 12 340 1.6 4.8 0.00 0.00 0.00 53 1012.0
20260502163045 11 349 1.6 9.7 0.00 0.00 0.00 53 1013.4
20260502161549 11 5 1.6 8.0 0.00 0.00 0.00 53 1013.3
20260502151543 11 24 1.6 16.1 0.00 0.00 0.00 54 1013.6
20260502123023 11 40 1.6 8.0 0.00 0.00 0.00 67 1012.2
20260502121520 11 351 1.6 11.3 0.00 0.00 0.00 66 1012.3
20260502114528 11 13 1.6 14.5 0.00 0.00 0.00 67 1012.3
20260502113020 11 360 1.6 9.7 0.00 0.00 0.00 70 1012.2
20260502111515 11 5 3.2 8.0 0.00 0.00 0.00 73 1012.2
20260502110018 11 31 0.0 6.4 0.00 0.00 0.00 74 1012.2
20260502104519 11 34 0.0 8.0 0.00 0.00 0.00 73 1012.0
20260502103013 11 45 0.0 6.4 0.00 0.00 0.00 73 1012.0
20260502101512 11 44 0.0 8.0 0.00 0.00 0.00 74 1012.0
20260502091507 11 31 0.0 3.2 0.00 0.00 0.00 80 1012.3
20260502080105 10 51 0.0 0.0 0.00 0.00 0.00 91 1011.4
20260502070107 10 51 0.0 0.0 0.00 0.00 0.00 90 1011.0
20260502064620 10 51 0.0 0.0 0.00 0.00 0.00 89 1011.2